Date String (YYYY-MM-DD hh:mm:ss) UTC,Instrument flags,Ambient pressure (hPa),Sample flow (lpm),Bypass flow (lpm),Sample temperature (°C),Ambient temperature (°C),ASC tube jacket temperature (°C),LED temperature (°C),Box temperature (°C),Sample RH (%),Span deviation,Mass concentration (μg/m³),Mass concentration (μg/m³),Mass concentration (μg/m³)
DateTimeUTC,F1_M11,P_M11,Q1_M11,Q2_M11,T1_M11,T2_M11,T3_M11,T4_M11,T5_M11,U1_M11,ZSPAN_M11,X0_M11,X2_M11,X1_M11
2021-11-10 14:00:00,,0822.5,5.00,0.00,25.7,24.7,00.0,34.9,27.4,10.7,0000.0,0002.58,0001.17,0000.77
2021-11-10 14:01:00,,0822.5,5.00,0.00,25.7,24.7,00.0,34.8,27.3,10.7,0000.0,0003.57,0001.28,0000.77
2021-11-10 14:02:00,,0822.6,4.99,0.00,25.7,24.7,00.0,34.8,27.3,10.5,0000.0,0004.57,0001.38,0000.79
2021-11-10 14:03:00,,0822.6,5.01,0.00,25.7,24.6,00.0,34.8,27.3,10.5,0000.0,0004.92,0001.42,0000.80
2021-11-10 14:04:00,,0822.6,5.00,0.00,25.7,24.6,00.0,34.8,27.3,10.5,0000.0,0004.84,0001.39,0000.80
2021-11-10 14:05:00,,0822.6,5.00,0.00,25.7,24.6,00.0,34.8,27.3,10.6,0000.0,0004.92,0001.41,0000.82
2021-11-10 14:06:00,,0822.6,4.99,0.00,25.7,24.6,00.0,34.8,27.3,10.5,0000.0,0005.24,0001.43,0000.84
2021-11-10 14:07:00,,0822.6,5.01,0.00,25.6,24.6,00.0,34.8,27.2,10.5,0000.0,0005.37,0001.48,0000.85
2021-11-10 14:08:00,,0822.6,4.98,0.00,25.6,24.5,00.0,34.8,27.3,10.5,0000.0,0005.52,0001.51,0000.86
2021-11-10 14:09:00,,0822.7,5.00,0.00,25.6,24.5,00.0,34.8,27.2,10.5,0000.0,0005.29,0001.50,0000.88
2021-11-10 14:10:00,,0822.7,5.01,0.00,25.6,24.5,00.0,34.8,27.2,10.5,0000.0,0005.35,0001.52,0000.88
2021-11-10 14:11:00,,0822.7,5.00,0.00,25.6,24.5,00.0,34.8,27.3,10.6,0000.0,0005.46,0001.55,0000.89
2021-11-10 14:12:00,,0822.7,5.00,0.00,25.6,24.5,00.0,34.8,27.2,10.6,0000.0,0004.54,0001.48,0000.90
2021-11-10 14:13:00,,0822.7,5.01,0.00,25.6,24.5,00.0,34.7,27.3,10.5,0000.0,0003.26,0001.37,0000.90
2021-11-10 14:14:00,,0822.8,5.01,0.00,25.6,24.5,00.0,34.7,27.3,10.4,0000.0,0002.58,0001.30,0000.91
2021-11-10 14:15:00,,0822.8,5.00,0.00,25.6,24.5,00.0,34.7,27.3,10.4,0000.0,0002.51,0001.27,0000.92
2021-11-10 14:16:00,,0822.8,4.99,0.00,25.6,24.5,00.0,34.7,27.2,10.4,0000.0,0002.49,0001.28,0000.92
2021-11-10 14:17:00,,0822.8,5.00,0.00,25.6,24.5,00.0,34.7,27.3,10.5,0000.0,0002.17,0001.30,0000.93
2021-11-10 14:18:00,,0822.8,5.00,0.00,25.6,24.5,00.0,34.7,27.2,10.4,0000.0,0002.13,0001.29,0000.93
2021-11-10 14:19:00,,0822.8,5.01,0.00,25.6,24.5,00.0,34.7,27.2,10.3,0000.0,0002.09,0001.31,0000.94
2021-11-10 14:20:00,,0822.8,4.98,0.00,25.5,24.5,00.0,34.7,27.2,10.3,0000.0,0002.20,0001.34,0000.94
2021-11-10 14:21:00,,0822.8,5.01,0.00,25.5,24.5,00.0,34.7,27.2,10.3,0000.0,0002.15,0001.34,0000.94
2021-11-10 14:22:00,,0822.8,5.01,0.00,25.5,24.5,00.0,34.7,27.2,10.4,0000.0,0002.02,0001.33,0000.94
2021-11-10 14:23:00,,0822.8,5.00,0.00,25.5,24.5,00.0,34.7,27.2,10.4,0000.0,0001.98,0001.31,0000.94
2021-11-10 14:24:00,,0822.9,4.99,0.00,25.5,24.5,00.0,34.7,27.1,10.4,0000.0,0002.06,0001.34,0000.96
2021-11-10 14:25:00,,0822.8,5.00,0.00,25.5,24.5,00.0,34.7,27.2,10.4,0000.0,0002.14,0001.39,0000.97
2021-11-10 14:26:00,,0822.7,5.01,0.00,25.5,24.4,00.0,34.6,27.2,10.4,0000.0,0002.23,0001.42,0000.99
2021-11-10 14:27:00,,0822.8,4.98,0.00,25.5,24.4,00.0,34.6,27.1,10.3,0000.0,0002.22,0001.41,0001.00
2021-11-10 14:28:00,,0822.9,5.01,0.00,25.5,24.4,00.0,34.6,27.1,10.5,0000.0,0002.14,0001.38,0000.99
2021-11-10 14:29:00,,0822.8,4.99,0.00,25.5,24.4,00.0,34.6,27.1,10.5,0000.0,0002.17,0001.40,0000.99
2021-11-10 14:30:00,,0822.8,5.00,0.00,25.5,24.4,00.0,34.6,27.1,10.3,0000.0,0002.16,0001.39,0000.99
2021-11-10 14:31:00,,0822.8,4.99,0.00,25.5,24.4,00.0,34.6,27.1,10.3,0000.0,0002.06,0001.38,0001.01
2021-11-10 14:32:00,,0822.7,5.01,0.00,25.5,24.4,00.0,34.6,27.1,10.3,0000.0,0002.12,0001.37,0001.01
2021-11-10 14:33:00,,0822.8,5.01,0.00,25.4,24.3,00.0,34.6,27.0,10.2,0000.0,0002.18,0001.37,0001.02
2021-11-10 14:34:00,,0822.8,4.98,0.00,25.4,24.2,00.0,34.6,27.0,10.1,0000.0,0002.29,0001.38,0001.02
2021-11-10 14:35:00,,0822.7,5.00,0.00,25.4,24.2,00.0,34.6,27.0,10.1,0000.0,0002.29,0001.38,0001.01
2021-11-10 14:36:00,,0822.8,5.00,0.00,25.4,24.2,00.0,34.5,27.0,10.1,0000.0,0003.34,0001.37,0001.02
2021-11-10 14:37:00,,0822.7,4.98,0.00,25.4,24.1,00.0,34.5,27.0,10.2,0000.0,0003.76,0001.34,0001.01
2021-11-10 14:38:00,,0822.8,4.99,0.00,25.4,24.2,00.0,34.5,27.0,10.1,0000.0,0003.79,0001.36,0001.02
2021-11-10 14:39:00,,0822.8,5.01,0.00,25.4,24.2,00.0,34.5,27.0,10.0,0000.0,0004.08,0001.41,0001.03
2021-11-10 14:40:00,,0822.8,5.00,0.00,25.4,24.1,00.0,34.5,27.0,10.1,0000.0,0004.14,0001.43,0001.05
2021-11-10 14:41:00,,0823.0,5.00,0.00,25.3,24.1,00.0,34.5,26.9,10.0,0000.0,0004.40,0001.42,0001.05
2021-11-10 14:42:00,,0822.9,4.99,0.00,25.3,24.1,00.0,34.5,27.0,10.0,0000.0,0004.56,0001.46,0001.06
2021-11-10 14:43:00,,0822.8,5.02,0.00,25.3,24.1,00.0,34.5,27.0,09.8,0000.0,0004.45,0001.44,0001.06
2021-11-10 14:44:00,,0822.9,4.98,0.00,25.3,24.2,00.0,34.5,26.9,09.7,0000.0,0004.57,0001.47,0001.06
2021-11-10 14:45:00,,0822.9,5.01,0.00,25.3,24.2,00.0,34.5,26.9,09.9,0000.0,0004.48,0001.50,0001.07
2021-11-10 14:46:00,,0823.0,5.00,0.00,25.3,24.2,00.0,34.5,26.9,09.8,0000.0,0004.54,0001.53,0001.08
2021-11-10 14:47:00,,0823.1,4.99,0.00,25.3,24.2,00.0,34.5,27.0,09.9,0000.0,0003.65,0001.52,0001.09
2021-11-10 14:48:00,,0823.1,5.00,0.00,25.3,24.2,00.0,34.5,27.0,10.0,0000.0,0002.87,0001.51,0001.09
2021-11-10 14:49:00,,0823.0,5.01,0.00,25.3,24.2,00.0,34.5,27.0,09.9,0000.0,0002.84,0001.51,0001.09
2021-11-10 14:50:00,,0823.0,5.00,0.00,25.3,24.2,00.0,34.4,27.0,09.8,0000.0,0002.73,0001.54,0001.10
2021-11-10 14:51:00,,0823.0,5.00,0.00,25.3,24.2,00.0,34.4,27.0,09.7,0000.0,0002.77,0001.57,0001.12
2021-11-10 14:52:00,,0823.1,5.00,0.00,25.3,24.2,00.0,34.4,26.9,09.7,0000.0,0002.69,0001.61,0001.12
2021-11-10 14:53:00,,0823.1,5.01,0.00,25.3,24.2,00.0,34.4,26.9,09.8,0000.0,0002.63,0001.59,0001.15
2021-11-10 14:54:00,,0823.2,5.00,0.00,25.3,24.2,00.0,34.4,27.0,09.7,0000.0,0002.81,0001.63,0001.17
2021-11-10 14:55:00,,0823.1,5.00,0.00,25.2,24.2,00.0,34.4,26.9,09.7,0000.0,0002.80,0001.64,0001.20
2021-11-10 14:56:00,,0823.2,4.99,0.00,25.2,24.1,00.0,34.4,26.8,09.8,0000.0,0003.35,0001.68,0001.22
2021-11-10 14:57:00,,0823.1,5.01,0.00,25.2,24.2,00.0,34.4,26.9,09.8,0000.0,0004.27,0001.73,0001.25
2021-11-10 14:58:00,,0823.2,5.01,0.00,25.2,24.1,00.0,34.4,26.8,09.8,0000.0,0004.91,0001.81,0001.27
2021-11-10 14:59:00,,0823.1,5.00,0.00,25.2,24.0,00.0,34.4,26.8,09.6,0000.0,0005.11,0001.87,0001.29
